Location: Haliburton Scout Reserve
(45.0900°N, 78.3200°W)
Time: 23:47:24
(UTC-04:00)

Explorer 11/Cluster Stage 4 - Visible Passes

Search period start: 30 May 2023 00:00
Search period end: 09 June 2023 00:00
Orbit: 466 x 1238 km, 28.8° (Epoch: 30 May)

Date Brightness Start Highest point End Pass type
(mag) Time Alt. Az. Time Alt. Az. Time Alt. Az.
30 May 8.6 03:22:33 20° S 03:24:13 21° S 03:29:44 10° SE visible
31 May 8.6 03:08:43 21° S 03:09:42 22° S 03:15:25 10° SE visible
31 May 8.6 04:51:39 10° SW 04:57:34 23° S 05:03:11 10° SE visible
01 Jun 8.5 02:54:56 22° S 02:55:09 22° S 03:01:01 10° SE visible
01 Jun 8.6 04:37:07 10° SW 04:43:03 23° S 04:48:45 10° SE visible
02 Jun 8.5 02:41:13 23° SSE 02:41:13 23° SSE 02:46:34 10° SE visible
02 Jun 8.6 04:23:06 11° SW 04:28:30 22° S 04:34:15 10° SE visible
03 Jun 8.6 02:27:37 22° SSE 02:27:37 22° SSE 02:32:03 10° SE visible
03 Jun 8.6 04:09:31 14° SW 04:13:57 22° S 04:19:41 10° SE visible
04 Jun 8.8 02:14:11 19° SSE 02:14:11 19° SSE 02:17:29 10° SE visible
04 Jun 8.6 03:56:06 16° SW 03:59:22 21° S 04:05:02 10° SE visible
05 Jun 9.0 02:00:59 15° SE 02:00:59 15° SE 02:02:52 10° SE visible
05 Jun 8.5 03:42:54 19° SSW 03:44:49 20° SSW 03:50:20 10° SSE visible
06 Jun 9.3 01:48:04 10° SE 01:48:04 10° SE 01:48:11 10° SE visible
06 Jun 8.6 03:30:01 19° SSW 03:30:14 19° SSW 03:35:33 10° SSE visible
07 Jun 8.8 03:17:29 17° S 03:17:29 17° S 03:20:40 10° SSE visible
08 Jun 9.2 03:05:18 11° SSE 03:05:18 11° SSE 03:05:42 10° SSE visible
